www.pogodaiklimat.ru

Погода и климат >> Архив погоды >> Исландия >> Гуфускалар


ПОГОДА на Гуфускаларе

  • Прогноз погоды на Гуфускаларе
  • Монитор погоды на Гуфускаларе

АРХИВ ПОГОДЫ на Гуфускаларе

Время (UTC), дата Ветер
(напр.,м/с)
 
Видим.   Явления Облачность Т
(С)
Тd
(С)
f
(%)
Тe
(С)
Тes
(С)
Комфортность P
(гПа)
Po
(гПа)
Тmin
(С)
Tmax
(С)
R
(мм)
R24
(мм)
S
(см)
15 16.07 В 1 н/о н/о +14.8 +16 +16 1005.2 1004.4 +14.3 +14.9 0.0
18 16.07 СЗ 1 н/о н/о +12.3 +13 +13 1004.3 1003.5 +12.3 +12.5 3
21 16.07 З 2 н/о н/о +12.2 +12 +12 1003.0 1002.2 +12.2 +12.4 11
00 17.07 С 1 н/о н/о +11.4 +13 +13 1002.5 1001.7 +11.4 +11.5 5
03 17.07 В 2 н/о н/о +11.9 +12 +12 1002.4 1001.6 +11.9 +11.9 3
06 17.07 В 2 н/о н/о +11.9 +12 +12 1002.8 1002.0 +11.9 +11.9 0.2
09 17.07 СВ 2 н/о н/о +12.8 +13 +13 1003.6 1002.8 +12.7 +13.0 0.0
12 17.07 СВ 5 н/о н/о +15.5 +15 +15 1004.2 1003.4 +15.0 +15.5
15 17.07 СВ 4 н/о н/о +15.7 +15 +15 1004.5 1003.7 +15.3 +16.1
18 17.07 СВ 3 н/о н/о +14.5 +14 +14 1004.3 1003.5 +14.2 +14.6 0.0
21 17.07 В 6 н/о н/о +15.3 +14 +14 1004.4 1003.6 +15.3 +15.4 0.0
00 18.07 В 7 н/о н/о +12.3 +10 +10 1004.8 1004.0 +12.1 +12.3 0.0
03 18.07 В 6 н/о н/о +11.0 +9 +9 1004.8 1004.0 +11.0 +11.1 0.0
06 18.07 В 8 н/о н/о +11.0 +8 +8 1004.7 1003.9 +11.0 +11.1 0.0
09 18.07 В 7 н/о н/о +12.1 +10 +10 1005.1 1004.3 +11.8 +12.1 0.0
12 18.07 В 6 н/о н/о +13.1 +11 +11 1005.3 1004.5 +13.1 +13.6 0.0
15 18.07 В 7 н/о н/о +15.7 +15 +15 1004.6 1003.8 +15.3 +15.9
18 18.07 В 7 н/о н/о +15.9 +15 +15 1004.6 1003.8 +15.8 +16.1 0.0
21 18.07 В 9 н/о н/о +13.3 +11 +11 1005.1 1004.3 +13.3 +13.4 0.0
00 19.07 В 7 н/о н/о +10.9 +8 +8 1005.8 1005.0 +10.9 +11.0 0.1
03 19.07 В 8 н/о н/о +9.7 +7 +7 1006.2 1005.3 +9.6 +9.7 0.0
06 19.07 В 9 н/о н/о +10.2 +7 +7 1006.2 1005.4 +10.1 +10.2 0.0
09 19.07 В 10 н/о н/о +11.2 +8 +8 1006.8 1006.0 +11.1 +11.4 0.0
12 19.07 В 7 н/о н/о +11.5 +9 +9 1007.4 1006.6 +11.5 +11.7
15 19.07 СВ 9 н/о н/о +12.4 +10 +10 1007.2 1006.4 +12.3 +12.5 0.0
18 19.07 В 9 н/о н/о +11.3 +9 +9 1006.7 1005.9 +11.2 +11.4 0.0
21 19.07 В 10 н/о н/о +11.1 +8 +8 1006.7 1005.9 +11.1 +11.5 0.0
00 20.07 В 11 н/о н/о +10.1 +7 +7 1005.9 1005.1 +10.1 +10.1 0.0
03 20.07 В 7 н/о н/о +10.0 +7 +7 1006.5 1005.6 +10.0 +10.0 0.1
06 20.07 В 8 н/о н/о +10.4 +8 +8 1005.4 1004.6 +10.4 +10.5 0.0
09 20.07 В 7 н/о н/о +11.6 +9 +9 1005.8 1005.0 +11.0 +11.6
12 20.07 В 8 н/о н/о +13.3 +11 +11 1005.6 1004.8 +12.9 +13.6 0.0
15 20.07 СВ 8 н/о н/о +14.0 +12 +12 1005.3 1004.5 +13.7 +14.4
18 20.07 СВ 7 н/о н/о +14.2 +13 +13 1005.0 1004.2 +14.2 +14.8 0.1
21 20.07 СВ 5 н/о н/о +13.2 +12 +12 1005.6 1004.8 +13.1 +13.3 0.0
00 21.07 В 5 н/о н/о +10.9 +9 +9 1005.5 1004.7 +10.6 +10.9 0.0
03 21.07 В 6 н/о н/о +10.0 +8 +8 1005.4 1004.6 +10.0 +10.2 0.0
06 21.07 В 5 н/о н/о +10.2 +8 +8 1005.5 1004.7 +10.1 +10.2 0.0
09 21.07 В 7 н/о н/о +12.5 +10 +10 1006.0 1005.2 +12.0 +12.6 0.0
12 21.07 СВ 7 н/о н/о +14.3 +13 +13 1006.3 1005.5 +14.0 +14.9
15 21.07 С 5 н/о н/о +13.6 +12 +12 1006.2 1005.4 +13.3 +15.1 0.0
18 21.07 СВ 4 н/о н/о +14.8 +14 +14 1005.6 1004.8 +14.0 +14.9 0.0
21 21.07 СВ 2 н/о н/о +14.6 +15 +15 1006.0 1005.2 +14.5 +14.8 0.0
00 22.07 В 3 н/о н/о +10.6 +10 +10 1006.0 1005.2 +10.2 +10.9 0.1
03 22.07 В 6 н/о н/о +10.2 +8 +8 1005.3 1004.5 +9.8 +10.2 0.0
06 22.07 В 7 н/о н/о +11.0 +9 +9 1004.8 1004.0 +11.0 +11.1 0.0
09 22.07 В 7 н/о н/о +13.3 +11 +11 1005.0 1004.2 +13.0 +13.4
12 22.07 СВ 6 н/о н/о +13.6 +12 +12 1005.3 1004.5 +13.6 +13.8 0.0
15 22.07 СВ 6 н/о н/о +14.3 +13 +13 1005.0 1004.2 +13.5 +14.3 0.0
18 22.07 С 4 н/о н/о +12.7 +12 +12 1005.3 1004.5 +12.6 +13.7 0.0
21 22.07 СВ 3 н/о н/о +12.5 +12 +12 1005.9 1005.1 +12.3 +12.7 0.0
00 23.07 В 3 н/о н/о +9.9 +9 +9 1006.6 1005.7 +9.2 +9.9 0.0
03 23.07 В 2 н/о н/о +8.0 +8 +8 1006.9 1006.0 +7.4 +8.1 0.1
06 23.07 В 2 н/о н/о +9.6 +9 +9 1007.5 1006.6 +9.5 +9.6 0.0
09 23.07 В 7 н/о н/о +12.6 +11 +11 1008.5 1007.7 +12.4 +12.7
12 23.07 В 9 н/о н/о +13.1 +11 +11 1009.4 1008.6 +12.6 +13.3 0.0

 

Местоположение метеостанции Гуфускалар (Исландия): широта 64.90 долгота 23.93 высота над уровнем моря 7 м.

В архиве по умолчанию представлена погода на Гуфускаларе за последнюю неделю. Архивные данные за месяц целиком и за предыдущие месяцы, начиная с января 2011 года, Вы можете получить, выбрав интересующий диапазон дат из раскрывающегося списка и нажав кнопку "Ввод!".


*Определитесь, кто Вы:
робот инопланетянин человек

Внимание! Время в таблицах - всемирное. Для получения местного времени необходимо прибавить поправку, которая равна 0 ч.

Смотрите также архив погоды в соседних городах и на ближайших метеорологических станциях:

Погода на Маяке Nahkiainen (Финляндия) (31 км)
Погода на Маяке Marjaniemi (Финляндия) (33 км)
Погода в Раахе Лапалуто (Финляндия) (34 км)
Погода в Хайлуото (Финляндия) (40 км)
Погода в Кеми (Финляндия) (55 км)
Погода в Ревонлахти (Финляндия) (60 км)
Погода на Острове Улкокалла (Финляндия) (67 км)
Погода в Оулунсало Пеллонпаа (Финляндия) (68 км)
Погода в Оулу (Финляндия) (70 км)
Погода в Родкаллене (Швеция) (86 км)

Пояснения к столбцам:

Ветер - указаны скорость ветра в м/с - средняя за 10 мин, порывы в срок и между сроками (в фигурных скобках) и направление, откуда дует ветер: С - северный, СВ - северо-восточный, В - восточный, ЮВ - юго-восточный, Ю - южный, ЮЗ - юго-западный, З - западный, СЗ - северо-западный.
Видимость - горизонтальная дальность видимости в метрах или километрах. При видимости от 1 до 10 км при отсутствии осадков обычно наблюдается дымка, при ухудшении видимости до 1 км и менее - туман. В сухую погоду видимость может ухудшаться дымом, пылью или мглою.
Явления - указаны атмосферные явления, наблюдавшиеся в срок или в последний час перед сроком; фигурными скобками обозначены явления, наблюдавшиеся между сроками (за 1-3 часа до срока); квадратными скобками обозначены град или гололедные отложения с указанием их диаметра в мм.
Облачность - указаны через наклонную черту общая и нижняя облачность в баллах и высота нижней границы облаков в метрах; квадратными скобками обозначены формы облаков: Ci - перистые, Cs - перисто-слоистые, Cc - перисто-кучевые, Ac - высококучевые, As - высокослоистые, Sc - слоисто-кучевые, Ns - слоисто-дождевые, Cu - кучевые, Cb - кучево-дождевые. Подробнее классификацию облаков см. в Атласе облаков (PDF).
T - Температура воздуха - температура, измеренная на высоте 2 м над землей.
Td - Температура точки росы - температура, при понижении до которой содержащийся в воздухе водяной пар достигнет насыщения.
f - Относительная влажность воздуха - влажноcть воздуха, измеренная на высоте 2 м над землей.
Te - Эффективная температура - температура, которую ощущает одетый по сезону человек в тени. Характеристика душности погоды. При расчете учитывается влияние влажности воздуха и скорости ветра на теплоощущения человека.
Tes - Эффективная температура на солнце - температура, которую ощущает человек, с поправкой на солнечный нагрев. Характеристика знойности погоды. Зависит от высоты солнца над горизонтом, облачности и скорости ветра. Ночью, в пасмурную погоду, а также при ветре 12 м/с и более поправка равна нулю.
P - Атмосферное давление - приведенное к уровню моря атмосферное давление.
Po - Атмосферное давление - измеренное на уровне метеостанции атмосферное давление.
Tmin - Минимальная температура - минимум температуры воздуха на высоте 2 м над землей.
Tmax - Максимальная температура - максимум температуры воздуха на высоте 2 м над землей.
R - Количество осадков - Количество выпавших осадков за период времени, мм. При наведении курсора мыши на число - период времени, за который выпало указанное количество осадков.
R24 - Количество осадков - Количество выпавших осадков за 24 часа, мм.
S - Снежный покров - Высота снежного покрова, см. При наведении курсора мыши на число - состояние снежного покрова и степень покрытия местности в баллах.